Theta_e
343 341 335 334 332 333 336 337 337 336 336 340 340 340 341 339 339 339 336 338 338 338 340 335 333 331 332 334 334 333 333 334 334 334 335 333 333 338 338 342 345 341 339
342 340 337 330 330 330 338 335 341 341 340 341 340 342 338 332 328 329 338 339 339 338 339 339 340 339 333 333 334 332 331 338 343 344 340 334 332 332 337 341 334 336 339
344 342 341 333 331 334 336 333 334 338 342 337 338 338 339 342 341 328 340 342 339 334 330 329 329 330 330 331 329 328 339 342 343 345 347 345 326 329 333 336 335 338 334
345 344 343 340 340 338 333 332 335 340 337 341 338 344 340 327 330 326 326 328 329 326 326 332 336 336 337 335 332 329 337 340 343 342 345 346 337 328 327 327 329 327 327
345 343 342 342 342 336 334 339 343 341 338 338 336 338 325 341 329 326 340 334 326 329 341 341 337 338 339 340 340 333 344 344 345 343 342 348 347 327 327 328 327 334 339
344 344 344 343 336 339 342 343 339 341 333 326 323 325 336 337 326 336 339 334 338 339 342 342 341 338 340 341 341 341 343 346 344 343 342 340 329 326 326 326 327 326 326
348 343 338 336 338 340 340 339 342 339 328 339 345 342 346 342 340 329 337 339 339 340 337 337 338 338 339 340 340 342 344 349 349 347 342 341 325 325 327 325 328 328 327
342 339 339 339 338 338 339 339 341 331 326 330 339 338 328 332 331 328 331 335 337 338 338 337 338 338 338 339 339 341 345 346 341 348 344 342 338 328 323 325 326 326 327
339 345 343 340 341 340 338 339 334 330 325 324 330 327 328 331 333 332 330 330 328 327 327 332 334 338 337 340 341 343 348 345 346 350 348 346 343 338 334 326 323 324 326
344 344 341 340 340 340 336 337 337 337 332 327 325 330 331 336 338 336 337 332 333 331 328 328 328 333 338 340 339 342 348 348 347 351 341 347 342 343 340 339 337 330 324
340 341 343 341 340 343 329 327 329 334 330 331 344 346 347 348 348 347 331 328 326 329 332 330 336 337 344 347 347 343 347 347 347 350 348 344 341 343 343 343 342 340 339
336 340 343 340 339 339 336 340 347 350 349 350 351 348 350 349 346 349 349 349 349 348 351 346 344 342 348 347 347 347 346 342 342 349 348 345 343 339 343 342 344 344 344
333 334 332 340 348 348 348 346 347 351 352 343 343 347 347 350 350 349 347 348 346 348 350 352 344 346 350 349 347 347 345 343 347 349 345 344 344 341 335 341 341 341 341
337 339 334 346 347 345 349 348 348 348 345 339 339 346 350 347 351 346 350 349 350 347 345 349 348 347 350 350 342 348 348 347 345 348 347 348 348 348 341 338 339 340 339
338 341 339 346 345 345 346 337 341 347 350 351 350 347 349 344 343 346 344 347 349 348 349 348 347 348 347 348 347 345 344 344 346 347 350 348 350 348 344 342 342 341 341
344 342 343 343 343 338 343 344 347 347 347 349 351 347 348 348 350 344 349 345 351 350 345 343 344 346 349 346 346 347 347 347 347 345 348 349 349 346 341 331 324 322 322
344 343 343 345 337 336 344 339 347 345 346 348 348 348 346 346 352 351 350 351 352 352 349 348 350 348 346 347 346 342 343 346 346 345 346 348 345 345 341 338 334 332 324
345 344 346 345 337 334 335 336 345 346 347 347 346 344 344 348 352 344 353 343 348 348 345 345 349 348 347 345 342 339 340 339 341 339 341 340 340 338 340 342 340 338 333
344 344 344 344 343 345 337 342 343 345 341 345 344 343 344 345 354 345 347 351 348 344 344 349 350 350 346 345 341 339 338 340 339 342 338 340 341 340 341 343 340 338 337
345 345 345 344 343 343 343 340 343 345 345 344 343 343 343 340 349 354 348 353 349 347 348 350 350 344 341 344 341 340 341 340 340 340 340 341 342 341 341 342 341 339 339
346 345 345 345 344 344 343 344 344 343 343 342 343 343 344 343 354 352 351 350 350 346 349 340 349 342 345 346 341 339 339 340 341 341 341 341 337 342 341 343 341 340 341
347 347 345 346 346 345 344 345 345 344 344 344 344 344 343 342 349 353 352 347 353 343 346 336 328 340 348 344 344 344 345 343 343 343 342 340 342 340 339 341 341 342 342
349 349 347 344 344 343 342 345 345 343 343 343 341 342 345 347 352 350 352 351 348 346 344 347 343 336 339 337 343 347 346 345 344 343 340 340 342 340 343 342 343 342 341
350 350 350 348 342 338 338 341 348 346 346 346 346 345 346 352 352 352 351 351 351 347 350 349 350 350 348 345 346 349 350 348 340 339 343 343 342 341 342 343 341 341 341
350 351 352 352 349 345 341 338 339 347 347 346 345 344 345 347 347 352 351 351 346 344 347 346 346 345 344 343 343 342 341 340 342 344 344 342 342 343 344 345 343 343 342
348 349 351 351 348 345 346 341 341 344 349 347 346 345 346 350 352 348 354 336 346 349 346 347 346 345 344 344 342 341 342 343 341 343 343 342 341 341 340 340 339 337 340
Wind_Speed
14 15 13 16 17 17 17 17 18 18 17 17 17 17 16 16 16 16 16 16 15 15 15 16 16 15 14 14 13 13 13 13 13 13 14 12 10 9 11 9 12 6 8
16 16 13 15 16 16 16 16 16 16 15 15 15 15 15 15 15 15 16 16 15 14 15 16 16 15 14 14 14 14 16 16 15 15 15 14 8 6 8 8 3 7 6
17 16 13 15 16 16 14 14 14 14 13 13 14 14 15 14 15 15 15 16 16 15 15 17 17 18 17 16 15 16 19 16 14 11 15 7 10 4 4 5 6 4 4
18 16 15 15 15 14 13 12 12 12 14 13 13 13 13 13 14 14 14 14 13 15 17 18 17 16 15 15 15 15 17 16 14 15 6 13 6 5 5 6 4 3 3
18 18 16 15 14 12 12 12 11 13 12 11 11 11 13 14 13 16 14 14 16 18 17 14 14 13 13 14 14 15 16 16 13 11 8 9 6 5 3 5 7 6 6
20 17 16 14 13 11 11 11 11 11 11 11 11 12 14 11 13 15 13 14 14 13 12 13 11 12 11 12 12 14 13 13 14 9 3 4 6 3 3 4 4 5 5
19 18 16 14 12 12 11 10 11 9 10 12 10 11 12 11 10 11 13 12 11 11 11 10 9 9 10 10 10 11 11 8 8 4 5 2 6 4 3 4 4 4 4
22 16 15 13 12 10 9 9 8 7 8 10 8 8 9 10 10 10 9 9 8 7 6 7 7 6 7 7 7 8 8 7 13 4 1 1 8 7 5 3 3 3 3
21 17 15 13 12 11 9 8 8 8 9 8 8 10 12 11 10 9 7 6 6 4 5 3 4 5 5 6 6 6 8 13 9 3 7 5 5 6 5 4 3 3 2
17 16 17 15 11 8 8 8 8 8 8 9 10 11 12 13 10 7 5 6 5 4 4 3 3 3 5 8 10 5 2 3 9 7 9 3 5 4 2 3 3 3 2
21 20 17 15 11 8 8 9 12 13 12 13 12 12 11 9 9 8 10 7 8 8 9 7 6 4 3 2 5 5 3 4 4 7 4 5 4 6 3 2 1 1 1
20 17 16 15 13 11 10 11 10 11 9 5 4 3 5 9 0 1 8 9 9 11 11 7 4 2 3 9 9 7 9 6 10 15 7 1 8 12 7 4 4 3 3
19 15 17 13 13 9 7 5 4 1 9 3 2 6 7 7 4 7 12 8 8 7 9 8 5 9 3 8 7 7 9 5 15 11 3 6 10 12 8 8 7 7 7
20 13 19 12 6 16 6 8 8 7 6 8 6 4 9 6 3 1 6 5 5 7 7 12 14 8 5 3 6 6 9 12 14 6 9 9 5 10 10 8 8 9 10
20 13 15 12 14 9 11 8 12 8 7 3 2 4 3 3 3 4 5 2 3 2 6 6 9 7 8 11 4 8 10 13 8 5 15 1 5 11 9 7 6 8 10
19 19 15 15 13 14 10 8 7 4 6 3 2 7 5 5 10 10 5 7 4 5 7 5 6 5 8 10 10 7 12 9 9 11 11 15 12 8 8 8 7 8 9
21 21 22 14 16 14 10 11 7 2 1 4 4 10 10 10 9 14 11 11 8 5 8 7 9 10 9 8 9 10 7 6 6 9 3 8 6 6 7 10 10 13 12
23 23 19 12 13 13 9 9 8 6 6 3 2 4 10 10 10 12 6 14 8 14 11 3 3 7 9 9 4 7 6 4 8 2 2 5 6 4 9 9 11 15 12
25 22 22 17 14 13 10 7 4 6 5 1 3 4 9 11 12 16 8 9 13 13 10 3 6 8 7 9 10 6 9 6 7 6 7 11 7 8 8 12 13 19 13
21 23 26 19 17 13 10 10 8 6 7 5 5 6 14 13 8 12 11 16 18 14 8 7 9 10 8 4 11 5 12 11 11 13 11 13 15 12 10 19 22 24 17
24 26 24 24 21 21 21 15 8 7 5 7 9 11 13 12 7 11 7 10 9 10 9 11 10 4 7 6 13 12 13 16 20 17 13 27 17 21 18 19 23 22 24
27 28 26 27 26 23 22 16 12 11 10 13 12 13 17 13 10 8 12 6 10 7 8 7 5 3 7 12 15 15 18 19 17 11 14 17 14 18 20 23 20 22 25
25 29 29 30 28 28 22 16 15 18 18 16 15 12 10 9 10 11 10 11 12 8 3 11 12 8 10 11 13 19 20 19 24 26 25 19 16 19 20 25 26 25 25
26 26 24 25 28 28 26 24 16 17 13 11 12 13 10 8 13 11 12 12 14 11 12 11 11 14 15 19 19 21 26 31 20 27 25 18 25 25 22 23 32 29 28
24 25 25 26 23 24 25 26 25 21 18 16 14 13 13 15 13 11 7 11 18 15 12 15 15 17 18 22 23 27 32 36 29 25 29 22 20 22 23 22 20 26 30
24 23 23 24 23 21 24 22 25 23 19 17 14 15 14 14 13 20 10 12 20 16 16 17 18 18 21 23 25 30 32 34 34 30 34 35 31 32 32 33 34 30 25
Wind_Direction
122 116 116 118 121 115 103 103 106 108 99 94 93 91 91 91 93 93 95 95 102 103 101 103 102 103 105 106 105 107 110 106 97 84 87 83 92 109 106 116 108 92 94
128 125 122 125 129 123 110 106 105 104 101 96 94 92 90 92 94 102 99 105 102 106 109 106 100 98 98 95 95 91 93 97 92 83 92 86 68 90 105 118 139 117 109
136 134 131 125 126 124 119 110 108 105 100 98 96 99 99 97 96 97 109 103 106 108 110 109 105 100 98 95 94 96 98 86 70 73 83 41 73 86 92 101 106 115 113
136 134 146 132 126 119 119 110 106 102 101 99 97 103 98 97 100 104 111 115 113 112 110 108 104 100 97 94 91 97 107 92 73 59 55 107 53 71 114 127 128 128 113
134 129 141 140 133 127 118 111 108 105 104 104 108 104 100 101 100 106 99 109 114 116 108 105 104 98 94 91 88 102 101 95 87 91 91 98 9 34 83 127 121 118 131
136 136 141 139 135 125 119 114 112 107 103 105 103 105 106 100 100 110 115 111 109 111 107 105 106 106 98 90 87 91 115 98 92 93 133 227 350 55 88 98 117 132 148
127 142 137 137 132 125 121 118 112 112 107 107 106 108 103 103 95 104 111 109 106 108 102 98 99 104 105 91 88 86 108 85 30 114 131 30 34 58 92 117 118 121 130
139 133 138 134 132 125 122 120 118 107 116 124 117 108 105 102 95 96 106 114 112 111 106 100 99 100 106 84 86 70 71 50 75 168 13 99 29 36 62 74 95 114 120
138 142 142 140 138 134 128 123 113 105 112 123 116 106 98 88 85 83 88 92 99 106 110 106 106 107 103 68 56 65 80 85 94 98 121 107 31 30 50 69 85 91 107
145 138 133 132 127 121 124 119 111 104 102 109 105 103 97 70 54 65 68 53 51 56 68 88 124 129 97 77 58 78 78 78 74 195 10 127 19 11 26 64 71 84 88
140 138 137 128 123 142 126 109 100 93 83 88 93 83 65 63 24 16 27 35 44 44 46 36 43 78 129 340 19 40 350 319 266 228 276 76 5 340 341 343 17 35 55
151 147 141 124 119 102 97 109 78 58 74 54 9 86 95 73 5 179 8 19 26 32 13 25 19 254 340 343 319 316 336 333 312 199 209 315 347 318 299 304 299 289 301
156 154 148 137 135 161 173 107 92 130 84 326 114 94 137 116 5 23 6 25 5 8 2 304 226 241 298 280 316 321 297 248 300 156 236 341 333 338 301 288 288 294 294
169 173 154 141 144 171 157 191 162 126 71 95 30 106 83 117 64 109 24 358 314 345 354 314 339 17 315 0 322 309 300 320 38 359 318 292 310 344 333 297 289 287 284
178 188 162 188 192 178 163 126 154 118 117 133 4 38 41 58 346 315 316 126 344 351 293 346 312 308 348 345 309 320 314 314 347 316 324 61 351 1 349 334 307 303 297
188 189 180 202 202 181 177 153 131 129 92 104 53 327 10 353 336 337 357 345 325 332 327 277 359 15 356 338 349 325 330 335 327 300 306 318 359 343 350 355 15 353 325
177 182 191 221 202 191 185 166 134 133 110 65 334 347 351 4 335 325 347 320 330 317 327 357 358 355 331 338 319 325 349 317 308 272 49 322 321 309 325 332 315 331 327
180 183 188 190 197 199 196 176 148 211 165 185 321 337 323 327 317 325 345 325 312 299 323 317 297 315 332 304 323 354 324 352 267 112 292 211 241 289 298 292 299 307 323
186 182 193 198 211 215 210 194 195 206 232 80 285 333 293 326 298 331 1 312 323 338 357 348 310 305 301 322 334 279 337 283 300 233 301 326 260 261 279 285 286 309 310
197 194 200 201 196 219 237 233 211 223 255 263 290 296 281 304 321 325 358 356 340 3 328 276 280 285 285 346 320 284 292 285 264 266 266 271 295 248 287 254 271 301 297
198 200 206 206 210 204 216 216 237 244 270 274 278 289 297 310 309 288 337 311 338 334 303 289 273 270 346 306 292 316 284 294 284 234 243 245 283 268 273 255 290 300 291
192 204 211 213 210 221 220 224 214 232 246 252 245 251 273 310 299 307 302 308 298 302 301 345 307 243 250 289 278 304 298 289 296 253 272 297 276 281 255 265 283 292 290
198 209 215 217 219 223 225 230 231 233 235 240 261 297 317 295 308 310 321 310 307 309 337 300 307 294 291 270 278 290 277 280 279 277 278 288 275 272 280 289 279 278 295
200 212 220 221 222 228 229 225 227 246 257 275 277 280 269 256 285 319 310 314 301 301 269 268 291 276 272 280 283 276 288 301 299 296 291 294 299 294 284 283 292 287 288
197 206 212 222 227 222 229 230 229 229 240 244 252 257 270 279 292 274 301 304 289 292 287 276 275 274 280 288 292 295 294 295 299 299 302 322 294 291 300 301 292 292 290
198 201 212 220 224 222 220 228 227 225 241 241 236 256 259 274 282 292 219 333 288 289 285 281 283 286 292 294 297 297 300 302 306 308 308 312 310 304 296 294 289 292 291